Tracking 35280 objects as of 7-Sep-2026
HD Live streaming from Space Station
objects crossing your sky now

CIS UNKNOWN 2 DEB


CIS UNKNOWN 2 DEB is no longer on orbit


NORAD ID: 2570
Int'l Code: 1966-101AE
Launch date: November 2, 1966
Source: Commonwealth of Independent States (former USSR) (CIS)
Launch site: TYURATAM MISSILE AND SPACE COMPLEX (TTMTR)
Decay date: 1966-11-22

Note: This is SATELLITE DEBRIS
Your satellite tracking list
Your tracking list is empty




NASA's NSSDC Master Catalog

Two Line Element Set (TLE):
1 02570U 66101 AE 66313.32684232  .00471147 +47120-3 +00000-0 0  9998
2 02570 049.6233 017.6460 0243724 134.6465 227.4103 15.92085360001164
Source of the keplerian elements: AFSPC